Tiree, United Kingdom

10:17 PM BST on April 30, 2017 (GMT +0100)
Tiree

Weather History for EGPU - December, 2011

Change the Weather History Date:

Thursday, December 15, 2011

  Actual Average Record
Temperature  
Mean Temperature 40 °F -  
Max Temperature 43 °F 46 °F 51 °F (2016)
Min Temperature 37 °F 38 °F 37 °F (2000)
Degree Days  
Heating Degree Days 25    
Moisture  
Dew Point 37 °F    
Average Humidity 90    
Maximum Humidity 100    
Minimum Humidity 77    
Precipitation  
Precipitation 0.16 in 0.16 in - ()
Sea Level Pressure  
Sea Level Pressure 29.19 in    
Wind  
Wind Speed 8 mph ()    
Max Wind Speed 21 mph    
Max Gust Speed -    
Visibility 6.9 miles    
Events Fog , Rain    
Averages and records for this station are not official NWS values.
T = Trace of Precipitation, MM = Missing Value Source: Averaged Metar Reports

Daily Weather History Graph

Daily Weather History Graph

Search for Another Location

Airport or City:

Trip Planner

Search our weather history database for the weather conditions in past years. The results will help you decide how hot, cold, wet, or windy it might be!

Date:

Astronomy

Dec. 15, 2011 Rise Set
Actual Time 8:55 AM GMT 3:49 PM GMT
Civil Twilight 8:07 AM GMT 4:37 PM GMT
Nautical Twilight 7:17 AM GMT 5:27 PM GMT
Astronomical Twilight 6:31 AM GMT 6:13 PM GMT
Moon 9:51 PM GMT (12/15) 11:19 AM GMT (12/15)
Length of Visible Light 8h 29m
Length of Day
6h 53m
Waning Gibbous, 77% of the Moon is Illuminated
Dec 15
Waning Gibbous
Dec 18
Last Quarter
Dec 24
New
Jan 1
First Quarter
Jan 9
Full

Hourly Weather History & Observations

Time (GMT) Temp. Windchill Dew Point Humidity Pressure Visibility Wind Dir Wind Speed Gust Speed Precip Events Conditions
12:20 AM 39.2 °F 29.3 °F 37.4 °F 93% 29.06 in 5.0 mi West 20.7 mph - N/A Rain Rain Showers
12:50 AM 39.2 °F 31.6 °F 37.4 °F 93% 29.06 in 3.7 mi WSW 12.7 mph - N/A Rain Rain
1:20 AM 41.0 °F 36.4 °F 39.2 °F 93% 29.06 in 4.3 mi SW 6.9 mph - N/A   Light Drizzle
1:50 AM 41.0 °F 36.4 °F 39.2 °F 93% 29.06 in 4.3 mi WSW 6.9 mph - N/A   Light Drizzle
2:20 AM 41.0 °F 35.8 °F 39.2 °F 93% 29.06 in 6.2 mi North 8.1 mph - N/A   Scattered Clouds
2:50 AM 39 °F - 38 °F 97% 29.10 in 13 mi NNE 8.1 mph - - Rain Drizzle
2:50 AM 39.2 °F 33.6 °F 39.2 °F 100% 29.09 in 6.2 mi NNE 8.1 mph - N/A   Scattered Clouds
3:20 AM 39.2 °F 32.5 °F 39.2 °F 100% 29.09 in 6.2 mi North 10.4 mph - N/A   Scattered Clouds
3:50 AM 39.2 °F 33.0 °F 37.4 °F 93% 29.12 in 6.2 mi North 9.2 mph - N/A   Unknown
4:20 AM 39.2 °F 33.0 °F 37.4 °F 93% 29.12 in 6.2 mi NNW 9.2 mph - N/A   Unknown
4:50 AM 41.0 °F 32.8 °F 39.2 °F 93% 29.15 in 6.2 mi North 16.1 mph - N/A   Partly Cloudy
5:20 AM 39.2 °F 33.6 °F 37.4 °F 93% 29.15 in 6.2 mi NNW 8.1 mph - N/A   Unknown
5:50 AM 42 °F - 38 °F 81% 29.20 in 17 mi NNW 11.5 mph - -  
5:50 AM 42.8 °F 36.6 °F 37.4 °F 81% 29.18 in 6.2 mi NNW 11.5 mph - N/A   Mostly Cloudy
6:20 AM 39.2 °F 33.6 °F 35.6 °F 87% 29.18 in 6.2 mi NNW 8.1 mph - N/A   Scattered Clouds
6:50 AM 37.4 °F 31.4 °F 33.8 °F 87% 29.21 in 6.2 mi NNW 8.1 mph - N/A   Unknown
7:20 AM 37.4 °F 31.4 °F 33.8 °F 87% 29.21 in 6.2 mi NNW 8.1 mph - N/A   Unknown
7:50 AM 39.2 °F 35.9 °F 35.6 °F 87% 29.24 in 6.2 mi NNW 4.6 mph - N/A   Unknown
8:20 AM 41.0 °F 34.7 °F 35.6 °F 81% 29.24 in 6.2 mi North 10.4 mph - N/A   Partly Cloudy
8:50 AM 39 °F - 35 °F 79% 29.26 in 10 mi NE 4.6 mph - - Rain Rain
8:50 AM 39.2 °F 35.9 °F 35.6 °F 87% 29.24 in 6.2 mi NE 4.6 mph - N/A   Partly Cloudy
9:20 AM 37.4 °F - 33.8 °F 87% 29.24 in 6.2 mi Calm Calm - N/A   Partly Cloudy
9:50 AM 37.4 °F 33.8 °F 33.8 °F 87% 29.27 in 6.2 mi SSW 4.6 mph - N/A Fog Partly Cloudy
10:20 AM 39.2 °F 35.9 °F 35.6 °F 87% 29.27 in 6.2 mi SW 4.6 mph - N/A   Scattered Clouds
10:50 AM 41.0 °F 38.0 °F 35.6 °F 81% 29.27 in 6.2 mi NW 4.6 mph - N/A Rain Light Rain Showers
11:20 AM 41.0 °F 37.1 °F 37.4 °F 87% 29.27 in 6.2 mi West 5.8 mph - N/A   Partly Cloudy
11:50 AM 42 °F - 37 °F 77% 29.30 in 28 mi WSW 4.6 mph - - Rain Rain
11:50 AM 41.0 °F 38.0 °F 37.4 °F 87% 29.30 in 6.2 mi WSW 4.6 mph - N/A   Scattered Clouds
12:20 PM 42.8 °F 37.0 °F 37.4 °F 81% 29.30 in 6.2 mi WSW 10.4 mph - N/A Rain Light Rain Showers
12:50 PM 41.0 °F 34.7 °F 37.4 °F 87% 29.27 in 6.2 mi NNW 10.4 mph - N/A Rain Light Rain Showers
1:20 PM 42.8 °F 39.3 °F 37.4 °F 81% 29.27 in 6.2 mi NNW 5.8 mph - N/A   Scattered Clouds
1:50 PM 42.8 °F - 39.2 °F 87% 29.27 in 6.2 mi North 1.2 mph - N/A   Scattered Clouds
2:20 PM 41.0 °F 38.0 °F 37.4 °F 87% 29.27 in 6.2 mi South 4.6 mph - N/A   Scattered Clouds
2:50 PM 41 °F - 38 °F 85% 29.28 in 18 mi SSW 8.1 mph - -   Scattered Clouds
2:50 PM 41.0 °F 35.8 °F 37.4 °F 87% 29.27 in 6.2 mi SSW 8.1 mph - N/A   Scattered Clouds
3:20 PM 41.0 °F 34.7 °F 37.4 °F 87% 29.24 in 6.2 mi SSW 10.4 mph - N/A Rain Light Rain Showers
3:50 PM 39.2 °F 33.6 °F 37.4 °F 93% 29.24 in 6.2 mi South 8.1 mph - N/A Rain Light Rain Showers
4:20 PM 41.0 °F 35.2 °F 37.4 °F 87% 29.24 in 6.2 mi South 9.2 mph - N/A   Unknown
4:50 PM 41.0 °F 35.2 °F 37.4 °F 87% 29.24 in 6.2 mi South 9.2 mph - N/A   Scattered Clouds
5:20 PM 41.0 °F 35.2 °F 39.2 °F 93% 29.21 in 6.2 mi SSE 9.2 mph - N/A Rain Light Rain Showers
5:50 PM 41 °F - 38 °F 86% 29.23 in 4 mi SSE 13.8 mph - - Rain Rain Showers
5:50 PM 41.0 °F 33.5 °F 39.2 °F 93% 29.21 in 4.3 mi SSE 13.8 mph - N/A Rain Rain Showers
6:20 PM 41.0 °F 36.4 °F 37.4 °F 87% 29.21 in 6.2 mi WSW 6.9 mph - N/A Rain Light Rain
6:50 PM 39.2 °F 35.9 °F 37.4 °F 93% 29.18 in 6.2 mi NNE 4.6 mph - N/A Rain Light Rain
7:20 PM 39.2 °F 35.0 °F 37.4 °F 93% 29.18 in - ENE 5.8 mph - N/A Rain Rain Showers
7:50 PM 39.2 °F 35.9 °F 39.2 °F 100% 29.15 in - East 4.6 mph - N/A Rain Rain Showers
8:20 PM 39.2 °F 37.0 °F 39.2 °F 100% 29.15 in 6.2 mi East 3.5 mph - N/A Rain Light Rain
8:50 PM 40 °F - 39 °F 93% 29.15 in 22 mi South 10.4 mph - - Rain Rain
8:50 PM 39.2 °F 32.5 °F 39.2 °F 100% 29.12 in 6.2 mi South 10.4 mph - N/A   Partly Cloudy
9:20 PM 41.0 °F 35.8 °F 39.2 °F 93% 29.12 in 6.2 mi SSW 8.1 mph - N/A   Scattered Clouds
9:50 PM 39.2 °F 33.0 °F 37.4 °F 93% 29.12 in 6.2 mi SW 9.2 mph - N/A   Mostly Cloudy
10:20 PM 39.2 °F 33.6 °F 37.4 °F 93% 29.12 in 6.2 mi WSW 8.1 mph - N/A Rain Light Rain Showers
10:50 PM 39.2 °F 33.0 °F 37.4 °F 93% 29.09 in 6.2 mi WSW 9.2 mph - N/A Rain Light Rain Showers
11:20 PM 39.2 °F 35.0 °F 37.4 °F 93% 29.09 in 6.2 mi WSW 5.8 mph - N/A Rain Light Rain
11:50 PM 39 °F - 37 °F 91% 29.09 in 19 mi West 3.5 mph - - Rain Light Rain
11:50 PM 39.2 °F 37.0 °F 37.4 °F 93% 29.09 in 6.2 mi Variable 3.5 mph - N/A Rain Light Rain